Location: Carnoy
(49.9849°N, 2.7558°E)
Time: 10:30:56
(UTC+00:00)

Cosmos 494 Rocket - Pass Details

Date: 24 January 2020
Orbit: 743 x 770 km, 74.1° (Epoch: 16 February)

Event Time Altitude Azimuth Distance (km) Brightness Sun altitude
Rises 16:55:40 0° 336° (NNW) 3,196 7.2 -4.7°
Reaches altitude 10° 16:58:02 10° 337° (NNW) 2,268 6.5 -5.0°
Maximum altitude 17:03:11 86° 65° (ENE) 753 4.0 -5.8°
Drops below altitude 10° 17:08:18 10° 156° (SSE) 2,256 6.4 -6.5°
Sets 17:10:39 0° 157° (SSE) 3,178 7.2 -6.9°
